M I D A S
Marine Information and Data Acquisition System
Tripno 1678 of the Zeeleeuw from 2009-04-21 08:05:11 to 2009-04-21 13:59:22
Back to CruiseResearch ActivitiesStationsMapUnderway DataData graphs

EquipmentUnitsComments
TimeDGPSUTC
LatitudeDGPSDM.mWGS84
LongitudeDGPSDM.mWGS84
SpeedMeteo Stationm/sRelative wind speed
DirectionMeteo StationdegRelative wind direction
TemperatureMeteo Stationdeg CelciusAir temperature
PressureMeteo StationPaAtmospheric pressure
HumidityMeteo Station%Relative humidity
Missing or incorrect values are displayed as -999
Metereological data collected by the RV Zeeleeuw from 2009-04-21 07:56:58 to 2009-04-21 14:07:10
Time Latitude Longitude Speed Direction Temperature Pressure Humidity
2009-04-21 07:58 51°13.675 2°55.908 3.4 282 7.7 102640 100
2009-04-21 07:59 51°13.69 2°55.824 4.6 310 7.7 102640 100
2009-04-21 08:00 51°13.699 2°55.783 4.9 84 7.7 102630 100
2009-04-21 08:01 51°13.746 2°55.708 3.8 73 7.7 102640 100
2009-04-21 08:02 51°13.82 2°55.652 7.6 79 7.6 102640 100
2009-04-21 08:03 51°13.892 2°55.632 5.4 75 7.5 102640 100
2009-04-21 08:04 51°13.913 2°55.626 4.4 27 7.6 102640 100
2009-04-21 08:05 51°13.912 2°55.628 5.7 16 7.5 102630 100
2009-04-21 08:06 51°13.924 2°55.61 4.5 353 7.5 102630 100
2009-04-21 08:07 51°14.004 2°55.532 6.6 285 7.5 102620 100
2009-04-21 08:08 51°14.129 2°55.414 7.9 340 7.6 102620 100
2009-04-21 08:09 51°14.256 2°55.28 9.7 281 7.6 102620 100
2009-04-21 08:10 51°14.374 2°55.111 10.1 279 7.7 102610 100
2009-04-21 08:11 51°14.477 2°54.909 9.6 350 7.6 102610 100
2009-04-21 08:12 51°14.547 2°54.653 8.3 352 7.6 102610 100
2009-04-21 08:13 51°14.61 2°54.39 9.9 351 7.6 102610 100
2009-04-21 08:14 51°14.659 2°54.115 8.7 350 7.5 102620 100
2009-04-21 08:15 51°14.692 2°53.828 7 1 7.4 102630 100
2009-04-21 08:16 51°14.721 2°53.535 7.7 357 7.5 102630 100
2009-04-21 08:17 51°14.748 2°53.24 6.5 352 7.4 102630 100
2009-04-21 08:18 51°14.774 2°52.944 9.7 357 7.4 102630 100
2009-04-21 08:19 51°14.801 2°52.65 9.6 355 7.6 102620 100
2009-04-21 08:20 51°14.83 2°52.357 8.1 351 7.4 102620 100
2009-04-21 08:21 51°14.859 2°52.064 10.1 354 7.5 102630 100
2009-04-21 08:22 51°14.888 2°51.772 10.6 353 7.4 102630 100
2009-04-21 08:23 51°14.921 2°51.479 10.7 354 7.3 102630 100
2009-04-21 08:24 51°14.953 2°51.181 8.5 357 7.3 102630 100
2009-04-21 08:25 51°14.98 2°50.881 9.1 355 7.2 102640 100
2009-04-21 08:26 51°15.009 2°50.596 6.2 350 7.2 102630 100
2009-04-21 08:27 51°15.066 2°50.449 6 349 7.2 102650 100
2009-04-21 08:28 51°15.131 2°50.476 5.3 286 7.3 102640 100
2009-04-21 08:29 51°15.155 2°50.551 5.7 304 7.4 102640 100
2009-04-21 08:30 51°15.157 2°50.589 5.7 281 7.4 102650 100
2009-04-21 08:31 51°15.155 2°50.621 5.1 305 7.5 102660 100
2009-04-21 08:32 51°15.153 2°50.651 4.6 278 7.4 102660 100
2009-04-21 08:33 51°15.152 2°50.681 3.7 305 7.4 102650 100
2009-04-21 08:34 51°15.153 2°50.71 4.5 284 7.3 102650 100
2009-04-21 08:35 51°15.151 2°50.748 4.1 284 7.3 102650 100
2009-04-21 08:36 51°15.109 2°50.798 3.7 40 7.3 102650 100
2009-04-21 08:37 51°15.074 2°50.732 5.6 21 7.3 102640 100
2009-04-21 08:38 51°15.063 2°50.637 5.3 19 7.3 102640 100
2009-04-21 08:39 51°15.048 2°50.552 4.7 28 7.3 102640 100
2009-04-21 08:40 51°15.041 2°50.462 4.5 18 7.3 102650 100
2009-04-21 08:41 51°15.038 2°50.373 5.3 25 7.3 102640 100
2009-04-21 08:42 51°15.018 2°50.296 5 39 7.4 102650 100
2009-04-21 08:43 51°14.979 2°50.238 3.7 35 7.3 102650 100
2009-04-21 08:44 51°14.94 2°50.177 2.8 39 7.3 102650 100
2009-04-21 08:45 51°14.902 2°50.115 3.5 37 7.4 102650 100
2009-04-21 08:46 51°14.865 2°50.053 3.3 79 7.5 102650 100
2009-04-21 08:47 51°14.827 2°49.992 2.6 55 7.4 102650 100
2009-04-21 08:48 51°14.788 2°49.935 2.9 43 7.4 102640 100
2009-04-21 08:49 51°14.749 2°49.877 2.9 34 7.4 102640 100
2009-04-21 08:50 51°14.709 2°49.811 3.7 28 7.5 102640 100
2009-04-21 08:51 51°14.666 2°49.744 3.5 25 7.5 102640 100
2009-04-21 08:52 51°14.624 2°49.678 4 25 7.5 102640 100
2009-04-21 08:53 51°14.582 2°49.611 3 33 7.5 102630 100
2009-04-21 08:54 51°14.54 2°49.544 3.6 41 7.5 102640 100
2009-04-21 08:55 51°14.497 2°49.476 2.9 32 7.5 102640 100
2009-04-21 08:56 51°14.454 2°49.409 4.2 26 7.5 102630 100
2009-04-21 08:57 51°14.412 2°49.344 3.8 32 7.5 102640 100
2009-04-21 08:58 51°14.369 2°49.279 4 31 7.5 102640 100
2009-04-21 08:59 51°14.328 2°49.216 4.1 34 7.4 102630 100
2009-04-21 09:00 51°14.286 2°49.153 3.9 34 7.5 102630 100
2009-04-21 09:01 51°14.244 2°49.09 4.3 37 7.5 102640 100
2009-04-21 09:02 51°14.202 2°49.026 2.6 34 7.4 102630 100
2009-04-21 09:03 51°14.161 2°48.962 4.1 35 7.4 102640 100
2009-04-21 09:04 51°14.12 2°48.898 3.9 40 7.4 102630 100
2009-04-21 09:05 51°14.086 2°48.828 4.3 28 7.3 102630 100
2009-04-21 09:06 51°14.069 2°48.748 4.6 21 7.3 102630 100
2009-04-21 09:07 51°14.059 2°48.664 4.1 17 7.2 102630 100
2009-04-21 09:08 51°14.064 2°48.582 4.4 9 7.2 102630 100
2009-04-21 09:09 51°14.086 2°48.513 4.6 5 7.2 102630 100
2009-04-21 09:10 51°14.107 2°48.485 5.4 7 7.2 102630 100
2009-04-21 09:11 51°14.122 2°48.48 6.5 10 7.2 102630 100
2009-04-21 09:12 51°14.134 2°48.483 4.9 10 7.2 102630 100
2009-04-21 09:13 51°14.163 2°48.48 5.1 281 7.2 102630 100
2009-04-21 09:14 51°14.262 2°48.492 9.8 278 7.2 102630 100
2009-04-21 09:15 51°14.423 2°48.567 12.7 282 7.2 102620 100
2009-04-21 09:16 51°14.618 2°48.682 9.8 280 7.1 102630 100
2009-04-21 09:17 51°14.815 2°48.804 10 278 7.2 102620 100
2009-04-21 09:18 51°15.018 2°48.904 10.1 279 7.2 102620 100
2009-04-21 09:19 51°15.221 2°49.007 10.2 281 7.2 102620 100
2009-04-21 09:20 51°15.425 2°49.113 9.8 283 7.3 102620 100
2009-04-21 09:21 51°15.628 2°49.213 11 282 7.3 102620 100
2009-04-21 09:22 51°15.836 2°49.286 11.9 285 7.2 102620 100
2009-04-21 09:23 51°16.042 2°49.352 13 278 7.3 102620 100
2009-04-21 09:24 51°16.248 2°49.403 12.5 337 7.3 102620 100
2009-04-21 09:25 51°16.456 2°49.457 9.8 280 7.2 102620 100
2009-04-21 09:26 51°16.667 2°49.516 10.8 335 7.2 102620 100
2009-04-21 09:27 51°16.877 2°49.57 13.2 280 7.3 102620 100
2009-04-21 09:28 51°17.086 2°49.617 10.9 279 7.2 102630 100
2009-04-21 09:29 51°17.294 2°49.656 9.5 284 7.1 102620 100
2009-04-21 09:30 51°17.502 2°49.7 9.6 283 7.1 102620 100
2009-04-21 09:31 51°17.71 2°49.752 11.5 283 7.2 102620 100
2009-04-21 09:32 51°17.919 2°49.806 9.4 278 7.2 102610 100
2009-04-21 09:33 51°18.129 2°49.868 10.8 338 7.2 102620 100
2009-04-21 09:34 51°18.334 2°49.962 10.1 283 7.2 102610 100
2009-04-21 09:35 51°18.538 2°50.053 12.2 331 7.3 102610 100
2009-04-21 09:36 51°18.741 2°50.146 9.9 282 7.4 102610 100
2009-04-21 09:37 51°18.943 2°50.238 10 286 7.4 102610 100
2009-04-21 09:38 51°19.145 2°50.328 11.1 281 7.4 102610 100
2009-04-21 09:39 51°19.346 2°50.418 10.1 282 7.3 102620 100
2009-04-21 09:40 51°19.549 2°50.503 9.7 332 7.3 102610 100
2009-04-21 09:41 51°19.751 2°50.59 9 284 7.3 102610 100
2009-04-21 09:42 51°19.954 2°50.677 11.4 332 7.4 102620 100
2009-04-21 09:43 51°20.157 2°50.772 8.8 286 7.3 102610 100
2009-04-21 09:44 51°20.359 2°50.867 9.9 281 7.4 102610 100
2009-04-21 09:45 51°20.559 2°50.985 9.7 281 7.3 102610 100
2009-04-21 09:46 51°20.76 2°51.1 11.2 285 7.2 102610 100
2009-04-21 09:47 51°20.959 2°51.213 11.7 332 7.2 102610 100
2009-04-21 09:48 51°21.164 2°51.336 11.3 335 7.2 102610 100
2009-04-21 09:49 51°21.366 2°51.443 11.5 283 7.3 102600 100
2009-04-21 09:50 51°21.573 2°51.519 11.6 284 7.3 102600 100
2009-04-21 09:51 51°21.782 2°51.596 11.5 284 7.4 102600 100
2009-04-21 09:52 51°21.991 2°51.678 10.7 283 7.4 102600 100
2009-04-21 09:53 51°22.204 2°51.733 9.8 280 7.5 102600 100
2009-04-21 09:54 51°22.418 2°51.762 9.2 278 7.5 102610 100
2009-04-21 09:55 51°22.633 2°51.796 11.7 282 7.5 102600 100
2009-04-21 09:56 51°22.848 2°51.824 12 282 7.4 102620 100
2009-04-21 09:57 51°23.061 2°51.862 10.4 284 7.4 102620 100
2009-04-21 09:58 51°23.271 2°51.904 10.4 281 7.3 102620 100
2009-04-21 09:59 51°23.48 2°51.945 11.8 285 7.3 102610 100
2009-04-21 10:00 51°23.687 2°51.98 11 286 7.2 102610 100
2009-04-21 10:01 51°23.895 2°52.008 11.7 285 7.2 102620 100
2009-04-21 10:02 51°24.104 2°52.04 10.4 285 7.2 102620 100
2009-04-21 10:02 51°24.307 2°52.078 9.2 282 7.3 102610 100
2009-04-21 10:04 51°24.525 2°52.117 10.3 278 7.4 102610 100
2009-04-21 10:05 51°24.736 2°52.151 11.8 286 7.3 102620 100
2009-04-21 10:06 51°24.949 2°52.179 8.5 283 7.3 102610 100
2009-04-21 10:07 51°25.16 2°52.175 9 280 7.3 102610 100
2009-04-21 10:08 51°25.37 2°52.172 12.8 284 7.4 102610 100
2009-04-21 10:09 51°25.579 2°52.173 10.4 280 7.3 102610 100
2009-04-21 10:10 51°25.788 2°52.176 10.3 282 7.3 102610 100
2009-04-21 10:11 51°25.998 2°52.179 10 278 7.3 102610 100
2009-04-21 10:12 51°26.206 2°52.18 10.4 287 7.2 102610 100
2009-04-21 10:13 51°26.415 2°52.182 11.4 282 7.2 102620 100
2009-04-21 10:14 51°26.623 2°52.18 8.7 283 7.2 102610 100
2009-04-21 10:15 51°26.832 2°52.18 12.1 281 7.2 102620 100
2009-04-21 10:16 51°27.039 2°52.183 9.6 280 7.2 102620 100
2009-04-21 10:17 51°27.248 2°52.182 12.6 282 7.1 102620 100
2009-04-21 10:18 51°27.457 2°52.182 10.2 285 7.1 102620 100
2009-04-21 10:19 51°27.669 2°52.184 9.3 281 7.1 102620 100
2009-04-21 10:20 51°27.88 2°52.182 9.8 281 7 102620 100
2009-04-21 10:21 51°28.083 2°52.262 11.1 282 7.1 102620 100
2009-04-21 10:22 51°28.271 2°52.433 11.6 281 7 102620 100
2009-04-21 10:23 51°28.459 2°52.602 9.2 279 7.1 102620 100
2009-04-21 10:24 51°28.647 2°52.774 11.3 282 7.1 102620 100
2009-04-21 10:25 51°28.835 2°52.946 10.9 279 7.1 102620 100
2009-04-21 10:26 51°29.022 2°53.121 8.8 286 7.1 102620 100
2009-04-21 10:27 51°29.208 2°53.299 9.2 280 7.1 102620 100
2009-04-21 10:28 51°29.394 2°53.479 9.1 285 7.1 102620 100
2009-04-21 10:29 51°29.581 2°53.655 11.6 283 7.2 102620 100
2009-04-21 10:30 51°29.768 2°53.83 10.6 282 7.2 102620 100
2009-04-21 10:31 51°29.956 2°54.006 9.1 283 7.2 102610 100
2009-04-21 10:32 51°30.143 2°54.184 9 281 7.2 102610 100
2009-04-21 10:33 51°30.33 2°54.369 10.7 286 7.2 102620 100
2009-04-21 10:34 51°30.514 2°54.552 11.6 281 7.2 102610 100
2009-04-21 10:35 51°30.679 2°54.721 9.5 283 7.2 102610 100
2009-04-21 10:36 51°30.774 2°54.842 5.9 280 7.2 102620 100
2009-04-21 10:37 51°30.849 2°54.938 7.4 286 7.2 102630 100
2009-04-21 10:38 51°30.917 2°55.028 5.5 285 7.2 102630 100
2009-04-21 10:39 51°30.985 2°55.113 6.6 283 7.2 102620 100
2009-04-21 10:40 51°31.052 2°55.202 6.5 279 7.2 102630 100
2009-04-21 10:41 51°31.113 2°55.281 4.2 286 7.3 102630 100
2009-04-21 10:42 51°31.155 2°55.34 4.7 280 7.3 102630 100
2009-04-21 10:43 51°31.209 2°55.415 6 286 7.3 102630 100
2009-04-21 10:44 51°31.277 2°55.51 7.9 279 7.3 102620 100
2009-04-21 10:45 51°31.351 2°55.608 6.6 279 7.3 102620 100
2009-04-21 10:46 51°31.43 2°55.714 6.6 280 7.2 102620 100
2009-04-21 10:47 51°31.513 2°55.815 6.1 284 7.2 102610 100
2009-04-21 10:48 51°31.596 2°55.91 5.5 283 7.2 102610 100
2009-04-21 10:49 51°31.658 2°56.009 6 286 7.2 102620 100
2009-04-21 10:50 51°31.714 2°56.075 4.7 280 7.2 102620 100
2009-04-21 10:51 51°31.762 2°56.088 5.5 280 7.2 102620 100
2009-04-21 10:52 51°31.799 2°56.07 5.5 351 7.1 102610 100
2009-04-21 10:53 51°31.833 2°56.036 5.5 354 7.1 102610 100
2009-04-21 10:54 51°31.868 2°55.998 6.3 355 7.1 102610 100
2009-04-21 10:55 51°31.907 2°55.952 6.5 351 7 102610 100
2009-04-21 10:56 51°31.979 2°55.809 7.1 352 6.8 102610 100
2009-04-21 10:57 51°32.054 2°55.59 7.8 281 6.8 102610 100
2009-04-21 10:58 51°32.158 2°55.335 9 279 6.9 102600 100
2009-04-21 10:59 51°32.297 2°55.107 9.2 283 6.9 102600 100
2009-04-21 11:00 51°32.437 2°54.885 9.9 282 7 102610 100
2009-04-21 11:01 51°32.576 2°54.659 10.2 278 7.1 102600 100
2009-04-21 11:02 51°32.716 2°54.435 10.3 283 7.1 102610 100
2009-04-21 11:03 51°32.871 2°54.233 10.2 277 7.2 102600 100
2009-04-21 11:04 51°33.028 2°54.034 10.7 282 7.2 102610 100
2009-04-21 11:05 51°33.181 2°53.83 10 280 7.2 102610 100
2009-04-21 11:06 51°33.335 2°53.627 10.5 284 7.2 102610 100
2009-04-21 11:07 51°33.485 2°53.431 8.5 281 7.2 102610 100
2009-04-21 11:08 51°33.608 2°53.28 7.8 286 7.2 102620 100
2009-04-21 11:09 51°33.71 2°53.152 8.5 281 7.2 102620 100
2009-04-21 11:10 51°33.815 2°53.013 7.4 283 7 102610 100
2009-04-21 11:11 51°33.917 2°52.873 6.6 278 6.9 102620 100
2009-04-21 11:12 51°33.997 2°52.781 6.5 280 6.9 102610 100
2009-04-21 11:13 51°34.053 2°52.71 5.9 354 6.9 102610 100
2009-04-21 11:14 51°34.097 2°52.647 4.3 1 6.7 102620 100
2009-04-21 11:15 51°34.137 2°52.604 4.3 3 6.8 102620 100
2009-04-21 11:16 51°34.174 2°52.559 3.6 354 6.7 102620 100
2009-04-21 11:17 51°34.193 2°52.533 2.8 12 6.8 102620 100
2009-04-21 11:18 51°34.203 2°52.528 3.7 30 6.8 102620 100
2009-04-21 11:19 51°34.211 2°52.526 4.2 24 6.9 102620 100
2009-04-21 11:20 51°34.219 2°52.531 4.2 13 7 102620 100
2009-04-21 11:21 51°34.227 2°52.541 3.8 16 6.9 102620 100
2009-04-21 11:22 51°34.235 2°52.553 5 22 7 102630 100
2009-04-21 11:23 51°34.231 2°52.531 2.8 42 6.9 102630 100
2009-04-21 11:24 51°34.209 2°52.522 3.2 78 6.9 102630 100
2009-04-21 11:25 51°34.195 2°52.522 3.2 76 6.8 102630 100
2009-04-21 11:26 51°34.185 2°52.519 3.4 34 6.8 102630 100
2009-04-21 11:27 51°34.182 2°52.515 3.9 33 6.9 102630 100
2009-04-21 11:28 51°34.185 2°52.515 3 27 6.8 102640 100
2009-04-21 11:29 51°34.191 2°52.519 2.8 26 6.9 102640 100
2009-04-21 11:30 51°34.199 2°52.523 3.1 19 6.9 102640 100
2009-04-21 11:31 51°34.209 2°52.523 2.6 13 7 102640 100
2009-04-21 11:32 51°34.22 2°52.523 4.3 16 7 102640 100
2009-04-21 11:33 51°34.23 2°52.528 3.9 16 7.1 102630 100
2009-04-21 11:34 51°34.241 2°52.537 3.5 12 7 102640 100
2009-04-21 11:35 51°34.251 2°52.549 2.7 4 7 102640 100
2009-04-21 11:36 51°34.26 2°52.532 2.1 15 7 102630 100
2009-04-21 11:37 51°34.242 2°52.523 1.2 78 7 102640 100
2009-04-21 11:38 51°34.219 2°52.524 1.6 34 7 102640 100
2009-04-21 11:39 51°34.202 2°52.517 2.2 75 7.1 102630 100
2009-04-21 11:40 51°34.196 2°52.515 2.1 36 7.1 102640 100
2009-04-21 11:41 51°34.193 2°52.518 2.5 39 7.1 102640 100
2009-04-21 11:42 51°34.194 2°52.517 2.8 25 7.1 102640 100
2009-04-21 11:43 51°34.201 2°52.517 3.6 20 7.1 102640 100
2009-04-21 11:44 51°34.209 2°52.527 3.7 14 7.2 102630 100
2009-04-21 11:45 51°34.219 2°52.539 3.2 15 7.2 102640 100
2009-04-21 11:46 51°34.227 2°52.555 4.4 12 7.3 102630 100
2009-04-21 11:47 51°34.236 2°52.571 3.9 15 7.2 102640 100
2009-04-21 11:48 51°34.244 2°52.589 3.2 355 7.1 102640 100
2009-04-21 11:49 51°34.253 2°52.607 3.1 355 7.2 102630 100
2009-04-21 11:50 51°34.263 2°52.617 3.5 359 7.1 102640 100
2009-04-21 11:51 51°34.261 2°52.589 4.3 25 7.1 102630 100
2009-04-21 11:52 51°34.245 2°52.564 3 15 7.1 102630 100
2009-04-21 11:53 51°34.235 2°52.536 3.2 32 7.2 102630 100
2009-04-21 11:54 51°34.221 2°52.536 2.6 56 7.2 102630 100
2009-04-21 11:55 51°34.204 2°52.548 2.7 57 7.2 102630 100
2009-04-21 11:56 51°34.194 2°52.563 2.2 34 7.2 102630 100
2009-04-21 11:57 51°34.185 2°52.551 3.6 16 7.2 102630 100
2009-04-21 11:58 51°34.192 2°52.536 4.2 14 7.3 102620 100
2009-04-21 11:59 51°34.206 2°52.521 3.2 7 7.2 102630 100
2009-04-21 12:00 51°34.222 2°52.522 3.6 4 7.2 102630 100
2009-04-21 12:01 51°34.236 2°52.529 5.1 4 7.1 102630 100
2009-04-21 12:02 51°34.249 2°52.54 3.4 6 7 102630 100
2009-04-21 12:03 51°34.261 2°52.554 3.7 2 7 102630 100
2009-04-21 12:04 51°34.273 2°52.562 5.3 12 7 102630 100
2009-04-21 12:05 51°34.275 2°52.542 3.6 30 7 102630 100
2009-04-21 12:06 51°34.243 2°52.563 2.2 305 7 102630 100
2009-04-21 12:07 51°34.185 2°52.671 2.1 310 7.1 102630 100
2009-04-21 12:08 51°34.077 2°52.805 3.9 309 7.3 102630 100
2009-04-21 12:09 51°33.927 2°52.941 4.1 304 7.4 102630 100
2009-04-21 12:10 51°33.754 2°53.065 2.3 304 7.4 102640 100
2009-04-21 12:11 51°33.578 2°53.185 1.8 330 7.4 102630 100
2009-04-21 12:12 51°33.402 2°53.308 2.5 333 7.5 102640 100
2009-04-21 12:13 51°33.226 2°53.428 2.4 343 7.6 102640 100
2009-04-21 12:14 51°33.042 2°53.493 2.4 341 7.5 102630 100
2009-04-21 12:15 51°32.856 2°53.513 3.2 360 7.4 102640 99
2009-04-21 12:16 51°32.67 2°53.517 2.5 7 7.4 102640 99
2009-04-21 12:17 51°32.483 2°53.525 2.6 359 7.3 102640 99
2009-04-21 12:18 51°32.298 2°53.534 3 4 7.4 102640 99
2009-04-21 12:19 51°32.115 2°53.548 2.4 7 7.3 102640 99
2009-04-21 12:20 51°31.933 2°53.556 2.4 348 7.3 102640 99
2009-04-21 12:21 51°31.745 2°53.572 2.4 337 7.2 102640 99
2009-04-21 12:22 51°31.561 2°53.59 2.7 347 7.3 102630 100
2009-04-21 12:23 51°31.378 2°53.601 3.3 343 7.4 102640 100
2009-04-21 12:24 51°31.197 2°53.595 3.5 348 7.4 102630 100
2009-04-21 12:25 51°31.016 2°53.589 3.5 351 7.3 102630 100
2009-04-21 12:26 51°30.835 2°53.589 2.7 347 7.2 102640 99
2009-04-21 12:27 51°30.651 2°53.583 3.4 353 7.1 102640 99
2009-04-21 12:28 51°30.464 2°53.577 4.3 3 7.2 102640 100
2009-04-21 12:29 51°30.279 2°53.575 2.8 358 7.1 102640 100
2009-04-21 12:30 51°30.087 2°53.569 3.9 356 7.1 102640 100
2009-04-21 12:31 51°29.896 2°53.564 2.1 359 7.1 102650 100
2009-04-21 12:32 51°29.708 2°53.535 4.7 353 7.1 102640 100
2009-04-21 12:33 51°29.539 2°53.411 7.1 357 7.1 102640 100
2009-04-21 12:34 51°29.374 2°53.276 7.1 351 7.1 102640 100
2009-04-21 12:35 51°29.211 2°53.135 5.6 357 7 102640 100
2009-04-21 12:36 51°29.044 2°53.011 4.7 357 7 102640 99
2009-04-21 12:37 51°28.869 2°52.924 2.7 346 7 102650 100
2009-04-21 12:38 51°28.694 2°52.846 3.2 350 7 102650 100
2009-04-21 12:39 51°28.512 2°52.772 3.8 358 7 102650 100
2009-04-21 12:40 51°28.334 2°52.69 5.8 356 7.1 102650 100
2009-04-21 12:41 51°28.157 2°52.597 4.5 358 7 102640 100
2009-04-21 12:42 51°27.981 2°52.503 4.1 344 7 102640 100
2009-04-21 12:43 51°27.802 2°52.419 3.8 350 7 102630 99
2009-04-21 12:44 51°27.623 2°52.354 2.6 339 7.1 102630 100
2009-04-21 12:45 51°27.437 2°52.354 2.7 339 7.1 102640 100
2009-04-21 12:46 51°27.248 2°52.359 2.1 333 7.2 102640 100
2009-04-21 12:47 51°27.06 2°52.36 2.2 351 7.3 102640 100
2009-04-21 12:48 51°26.87 2°52.358 1.5 358 7.4 102640 99
2009-04-21 12:49 51°26.68 2°52.356 2.5 340 7.4 102640 99
2009-04-21 12:50 51°26.498 2°52.443 2.2 325 7.4 102640 99
2009-04-21 12:51 51°26.338 2°52.623 3 310 7.5 102630 99
2009-04-21 12:52 51°26.187 2°52.83 3.4 281 7.6 102640 99
2009-04-21 12:53 51°26.033 2°53.037 4.7 305 7.7 102630 99
2009-04-21 12:54 51°25.881 2°53.24 3.9 285 7.7 102630 99
2009-04-21 12:55 51°25.729 2°53.438 3.5 309 7.7 102630 98
2009-04-21 12:56 51°25.557 2°53.588 2.2 304 7.7 102630 98
2009-04-21 12:57 51°25.37 2°53.633 1.9 287 7.7 102640 98
2009-04-21 12:58 51°25.182 2°53.634 2.2 338 7.7 102630 97
2009-04-21 12:59 51°24.994 2°53.637 3.6 341 7.7 102640 98
2009-04-21 13:00 51°24.805 2°53.646 3.5 352 7.8 102630 97
2009-04-21 13:01 51°24.623 2°53.634 3.1 355 7.6 102640 97
2009-04-21 13:02 51°24.441 2°53.703 3.2 350 7.5 102640 97
2009-04-21 13:03 51°24.253 2°53.721 3.3 350 7.4 102640 97
2009-04-21 13:04 51°24.065 2°53.706 3.2 349 7.3 102640 97
2009-04-21 13:05 51°23.878 2°53.668 2.4 353 7.3 102640 97
2009-04-21 13:06 51°23.691 2°53.617 2.9 355 7.2 102640 98
2009-04-21 13:07 51°23.506 2°53.55 3.9 359 7.2 102640 98
2009-04-21 13:08 51°23.321 2°53.486 3.9 351 7.3 102630 98
2009-04-21 13:09 51°23.135 2°53.428 4.1 357 7.2 102630 98
2009-04-21 13:10 51°22.948 2°53.367 3.8 357 7.2 102630 98
2009-04-21 13:11 51°22.761 2°53.3 4.5 354 7.2 102630 98
2009-04-21 13:12 51°22.572 2°53.239 3.9 353 7.2 102620 98
2009-04-21 13:13 51°22.381 2°53.2 4 355 7.1 102620 98
2009-04-21 13:14 51°22.191 2°53.164 4 356 7.1 102630 98
2009-04-21 13:15 51°21.998 2°53.131 3.7 356 7.1 102620 99
2009-04-21 13:16 51°21.803 2°53.13 2.7 354 7.1 102630 98
2009-04-21 13:17 51°21.607 2°53.137 3 348 7.1 102620 99
2009-04-21 13:18 51°21.411 2°53.145 2.4 356 7.2 102620 99
2009-04-21 13:19 51°21.216 2°53.149 3.4 359 7.1 102630 99
2009-04-21 13:20 51°21.021 2°53.15 3.1 356 7.1 102630 99
2009-04-21 13:21 51°20.83 2°53.129 2.2 350 7.2 102620 99
2009-04-21 13:22 51°20.642 2°53.101 2.9 350 7.2 102610 99
2009-04-21 13:23 51°20.452 2°53.076 4.1 347 7.3 102610 99
2009-04-21 13:24 51°20.26 2°53.047 3.7 281 7.2 102610 99
2009-04-21 13:25 51°20.068 2°53.019 3 333 7.3 102610 99
2009-04-21 13:26 51°19.885 2°52.939 3 345 7.5 102610 99
2009-04-21 13:27 51°19.702 2°52.841 3.9 339 7.5 102600 98
2009-04-21 13:28 51°19.507 2°52.83 2.7 333 7.6 102600 98
2009-04-21 13:29 51°19.31 2°52.812 3.3 337 7.6 102600 98
2009-04-21 13:30 51°19.113 2°52.796 3 339 7.7 102600 98
2009-04-21 13:31 51°18.92 2°52.761 3.4 341 7.8 102600 98
2009-04-21 13:32 51°18.728 2°52.701 3.4 345 7.8 102600 98
2009-04-21 13:33 51°18.536 2°52.634 3.2 345 7.8 102600 97
2009-04-21 13:34 51°18.342 2°52.575 3.4 344 7.8 102600 98
2009-04-21 13:35 51°18.15 2°52.51 4.2 341 7.8 102600 98
2009-04-21 13:36 51°17.956 2°52.457 3.8 343 7.9 102600 98
2009-04-21 13:37 51°17.762 2°52.434 3.1 352 7.9 102600 97
2009-04-21 13:38 51°17.567 2°52.419 1.5 355 7.8 102600 97
2009-04-21 13:39 51°17.37 2°52.394 2.7 351 7.8 102600 97
2009-04-21 13:40 51°17.172 2°52.388 3.2 341 7.9 102600 98
2009-04-21 13:41 51°16.981 2°52.424 2.2 342 7.8 102600 97
2009-04-21 13:42 51°16.795 2°52.503 2.1 337 7.9 102600 98
2009-04-21 13:43 51°16.607 2°52.583 2.4 345 8 102600 98
2009-04-21 13:44 51°16.418 2°52.66 3.2 343 7.9 102600 97
2009-04-21 13:45 51°16.228 2°52.735 3.6 343 8 102600 97
2009-04-21 13:46 51°16.037 2°52.806 3 342 8 102600 97
2009-04-21 13:47 51°15.848 2°52.891 2.7 333 8 102600 97
2009-04-21 13:48 51°15.661 2°52.989 2.5 331 8.1 102600 97
2009-04-21 13:49 51°15.478 2°53.101 3.1 339 8.2 102590 97
2009-04-21 13:50 51°15.3 2°53.229 2.7 329 8.3 102590 97
2009-04-21 13:51 51°15.136 2°53.392 2.7 331 8.3 102600 96
2009-04-21 13:52 51°14.986 2°53.587 3.9 280 8.3 102590 96
2009-04-21 13:53 51°14.863 2°53.816 4.1 325 8.4 102590 95
2009-04-21 13:54 51°14.75 2°54.064 4.2 303 8.4 102590 95
2009-04-21 13:55 51°14.64 2°54.32 5.4 304 8.5 102580 95
2009-04-21 13:56 51°14.535 2°54.578 3.8 279 8.4 102580 94
2009-04-21 13:57 51°14.434 2°54.841 3.9 285 8.4 102590 94
2009-04-21 13:58 51°14.334 2°55.108 3.3 280 8.4 102590 94
2009-04-21 13:59 51°14.239 2°55.295 1.1 284 8.4 102590 94
2009-04-21 14:00 51°14.139 2°55.409 0.4 341 8.5 102590 95
2009-04-21 14:01 51°14.026 2°55.49 -999 342 8.6 102590 94
2009-04-21 14:04 51°13.98 2°55.522 2 278 9.2 102580 95
2009-04-21 14:05 51°13.697 2°55.824 0.8 286 9.2 102580 93
2009-04-21 14:06 51°13.668 2°55.912 1.4 288 9.2 102580 92
2009-04-21 14:07 51°13.662 2°55.955 2.9 80 9.3 102580 92